Date String (YYYY-MM-DD hh:mm:ss) UTC,Instrument flags,Ambient pressure (hPa),Sample flow (lpm),Bypass flow (lpm),Sample temperature (°C),Ambient temperature (°C),ASC tube jacket temperature (°C),LED temperature (°C),Box temperature (°C),Sample RH (%),Span deviation,Mass concentration (μg/m³),Mass concentration (μg/m³),Mass concentration (μg/m³)
DateTimeUTC,F1_M11,P_M11,Q1_M11,Q2_M11,T1_M11,T2_M11,T3_M11,T4_M11,T5_M11,U1_M11,ZSPAN_M11,X0_M11,X2_M11,X1_M11
2023-01-21 11:00:00,,0825.8,5.01,0.00,22.4,22.6,00.0,31.1,24.4,08.7,0000.0,0007.75,0005.01,0004.76
2023-01-21 11:01:00,,0825.8,4.98,0.00,22.5,22.8,00.0,31.2,24.5,08.9,0000.0,0007.63,0004.96,0004.73
2023-01-21 11:02:00,,0825.9,4.99,0.00,22.6,22.2,00.0,31.2,24.4,08.9,0000.0,0007.53,0004.91,0004.70
2023-01-21 11:03:00,,0825.8,5.01,0.00,22.5,21.6,00.0,31.2,24.3,08.8,0000.0,0007.33,0004.87,0004.66
2023-01-21 11:04:00,,0825.8,5.01,0.00,22.5,21.2,00.0,31.2,24.2,08.7,0000.0,0007.12,0004.83,0004.62
2023-01-21 11:05:00,,0825.8,5.00,0.00,22.4,20.9,00.0,31.2,24.1,08.8,0000.0,0007.21,0004.82,0004.60
2023-01-21 11:06:00,,0825.8,4.99,0.00,22.4,20.7,00.0,31.2,24.0,08.9,0000.0,0007.16,0004.80,0004.57
2023-01-21 11:07:00,,0825.8,5.01,0.00,22.4,20.5,00.0,31.2,24.0,08.9,0000.0,0007.20,0004.79,0004.55
2023-01-21 11:08:00,,0825.8,5.02,0.00,22.3,20.3,00.0,31.2,23.9,08.8,0000.0,0007.32,0004.77,0004.53
2023-01-21 11:09:00,,0825.8,4.98,0.00,22.2,20.2,00.0,31.1,23.8,08.8,0000.0,0007.26,0004.75,0004.52
2023-01-21 11:10:00,,0825.8,5.01,0.00,22.2,20.2,00.0,31.1,23.8,08.8,0000.0,0007.28,0004.75,0004.53
2023-01-21 11:11:00,,0825.8,5.00,0.00,22.2,20.2,00.0,31.1,23.8,08.9,0000.0,0007.38,0004.78,0004.54
2023-01-21 11:12:00,,0825.9,4.99,0.00,22.2,20.6,00.0,31.1,23.9,09.0,0000.0,0007.38,0004.78,0004.55
2023-01-21 11:13:00,,0825.9,5.00,0.00,22.3,21.7,00.0,31.1,24.1,09.0,0000.0,0007.38,0004.79,0004.56
2023-01-21 11:14:00,,0825.9,5.01,0.00,22.4,22.7,00.0,31.1,24.4,08.9,0000.0,0007.35,0004.80,0004.57
2023-01-21 11:15:00,,0825.9,4.99,0.00,22.5,22.8,00.0,31.1,24.5,08.9,0000.0,0007.29,0004.78,0004.56
2023-01-21 11:16:00,,0826.0,4.99,0.00,22.5,22.3,00.0,31.1,24.4,08.8,0000.0,0007.19,0004.76,0004.56
2023-01-21 11:17:00,,0825.9,5.00,0.00,22.5,21.9,00.0,31.2,24.3,08.8,0000.0,0007.26,0004.77,0004.57
2023-01-21 11:18:00,,0825.9,5.00,0.00,22.5,21.6,00.0,31.2,24.3,08.8,0000.0,0007.34,0004.80,0004.59
2023-01-21 11:19:00,,0826.0,4.99,0.00,22.5,21.4,00.0,31.2,24.2,08.7,0000.0,0007.23,0004.81,0004.59
2023-01-21 11:20:00,,0826.0,5.01,0.00,22.5,21.2,00.0,31.2,24.2,08.7,0000.0,0008.03,0004.84,0004.60
2023-01-21 11:21:00,,0826.0,5.02,0.00,22.4,21.1,00.0,31.2,24.2,08.7,0000.0,0008.12,0004.84,0004.61
2023-01-21 11:22:00,,0826.0,5.01,0.00,22.4,21.0,00.0,31.2,24.1,08.6,0000.0,0008.12,0004.83,0004.61
2023-01-21 11:23:00,,0826.1,4.99,0.00,22.4,20.9,00.0,31.2,24.1,08.6,0000.0,0008.17,0004.85,0004.62
2023-01-21 11:24:00,,0826.0,5.00,0.00,22.4,20.9,00.0,31.2,24.1,08.6,0000.0,0008.15,0004.84,0004.61
2023-01-21 11:25:00,,0826.0,5.00,0.00,22.4,20.8,00.0,31.2,24.1,08.6,0000.0,0008.33,0004.85,0004.60
2023-01-21 11:26:00,,0826.1,5.01,0.00,22.4,20.8,00.0,31.2,24.1,08.6,0000.0,0008.81,0004.84,0004.60
2023-01-21 11:27:00,,0826.1,5.00,0.00,22.3,20.8,00.0,31.2,24.0,08.6,0000.0,0008.86,0004.87,0004.60
2023-01-21 11:28:00,,0826.1,4.99,0.00,22.3,20.8,00.0,31.2,24.0,08.6,0000.0,0008.84,0004.84,0004.58
2023-01-21 11:29:00,,0826.2,5.03,0.00,22.3,21.0,00.0,31.1,24.1,08.6,0000.0,0008.80,0004.82,0004.57
2023-01-21 11:30:00,,0826.1,5.00,0.00,22.4,21.9,00.0,31.1,24.2,08.6,0000.0,0008.93,0004.80,0004.56
2023-01-21 11:31:00,,0826.2,5.01,0.00,22.5,22.9,00.0,31.1,24.5,08.6,0000.0,0008.38,0004.78,0004.54
2023-01-21 11:32:00,,0826.2,4.99,0.00,22.6,23.0,00.0,31.2,24.6,08.5,0000.0,0008.35,0004.80,0004.55
2023-01-21 11:33:00,,0826.2,5.00,0.00,22.6,22.5,00.0,31.2,24.6,08.5,0000.0,0008.97,0004.82,0004.55
2023-01-21 11:34:00,,0826.1,5.01,0.00,22.6,22.1,00.0,31.3,24.5,08.5,0000.0,0009.03,0004.82,0004.57
2023-01-21 11:35:00,,0826.0,4.98,0.00,22.6,21.6,00.0,31.3,24.4,08.5,0000.0,0009.04,0004.82,0004.58
2023-01-21 11:36:00,,0826.1,5.03,0.00,22.6,21.2,00.0,31.3,24.3,08.6,0000.0,0009.06,0004.81,0004.59
2023-01-21 11:37:00,,0826.1,5.02,0.00,22.6,21.1,00.0,31.3,24.2,08.6,0000.0,0009.04,0004.80,0004.61
2023-01-21 11:38:00,,0826.0,5.01,0.00,22.5,21.0,00.0,31.3,24.2,08.6,0000.0,0009.23,0004.81,0004.62
2023-01-21 11:39:00,,0826.0,4.99,0.00,22.5,20.9,00.0,31.3,24.2,08.6,0000.0,0009.18,0004.81,0004.63
2023-01-21 11:40:00,,0826.0,5.00,0.00,22.5,20.8,00.0,31.3,24.1,08.7,0000.0,0009.14,0004.81,0004.65
2023-01-21 11:41:00,,0826.0,5.00,0.00,22.4,20.7,00.0,31.2,24.1,08.7,0000.0,0009.52,0004.85,0004.66
2023-01-21 11:42:00,,0826.0,5.01,0.00,22.4,20.6,00.0,31.2,24.0,08.7,0000.0,0009.86,0004.86,0004.66
2023-01-21 11:43:00,,0826.0,5.01,0.00,22.3,20.3,00.0,31.2,23.9,08.8,0000.0,0009.74,0004.85,0004.64
2023-01-21 11:44:00,,0826.0,4.99,0.00,22.3,20.0,00.0,31.2,23.8,08.8,0000.0,0009.29,0004.83,0004.62
2023-01-21 11:45:00,,0826.0,5.01,0.00,22.2,20.8,00.0,31.1,23.9,08.8,0000.0,0008.96,0004.80,0004.60
2023-01-21 11:46:00,,0826.0,4.99,0.00,22.3,22.0,00.0,31.1,24.2,08.8,0000.0,0008.93,0004.79,0004.58
2023-01-21 11:47:00,,0826.0,5.00,0.00,22.5,22.6,00.0,31.1,24.4,08.8,0000.0,0008.89,0004.79,0004.57
2023-01-21 11:48:00,,0825.9,4.99,0.00,22.5,22.0,00.0,31.2,24.2,08.8,0000.0,0008.59,0004.79,0004.56
2023-01-21 11:49:00,,0826.0,5.00,0.00,22.4,21.4,00.0,31.2,24.1,08.8,0000.0,0008.16,0004.76,0004.54
2023-01-21 11:50:00,,0825.9,5.01,0.00,22.4,21.0,00.0,31.2,24.0,08.8,0000.0,0008.14,0004.75,0004.53
2023-01-21 11:51:00,,0825.9,4.99,0.00,22.3,20.8,00.0,31.2,23.9,08.8,0000.0,0008.18,0004.75,0004.52
2023-01-21 11:52:00,,0826.0,5.00,0.00,22.3,20.6,00.0,31.1,23.9,08.8,0000.0,0007.99,0004.73,0004.52
2023-01-21 11:53:00,,0825.9,5.01,0.00,22.3,20.5,00.0,31.1,23.8,08.9,0000.0,0006.94,0004.70,0004.52
2023-01-21 11:54:00,,0825.9,5.01,0.00,22.2,20.4,00.0,31.1,23.8,08.9,0000.0,0007.08,0004.70,0004.52
2023-01-21 11:55:00,,0825.9,4.99,0.00,22.2,20.3,00.0,31.1,23.7,08.9,0000.0,0007.19,0004.70,0004.50
2023-01-21 11:56:00,,0825.9,4.98,0.00,22.1,20.2,00.0,31.1,23.7,09.0,0000.0,0007.22,0004.69,0004.50
2023-01-21 11:57:00,,0825.9,5.02,0.00,22.1,20.3,00.0,31.0,23.6,09.0,0000.0,0007.33,0004.70,0004.50
2023-01-21 11:58:00,,0825.9,5.02,0.00,22.1,21.2,00.0,31.0,23.9,09.0,0000.0,0007.30,0004.70,0004.50
2023-01-21 11:59:00,,0825.9,5.01,0.00,22.2,22.3,00.0,31.0,24.1,08.9,0000.0,0006.97,0004.70,0004.49
